sat.trackr.live / text

‹ back to catalog

STARLINK-2657

NORAD 48655 · 2021-044T

PAYLOAD ACTIVE UNKNOWN

§ Identity

Operator
Country
US
Launch date
2021-05-26
Launch site
AFETR
Launch vehicle
Mass (kg)
RCS (m²)

Purposes: comms

External: N2YO · Heavens-Above · Gunter

§ Orbital elements

Epoch: 2026-09-08T13:23:02.898816Z

Period
94.01 min
Inclination
53.1616°
Eccentricity
0.0001190
Mean motion
15.31708720 rev/d
Perigee alt
469.9 km
Apogee alt
471.5 km
Semi-major
6,848.9 km
B*
2.0717e-5
RAAN
342.9771°
Arg perigee
89.6362°
Mean anomaly
270.4776°
Rev number
29,184

§ Raw data

STARLINK-26571 48655U 21044T   26251.55767244  .00000278  00000+0  20717-4 0  99922 48655  53.1616 342.9771 0001190  89.6362 270.4776 15.31708720291841

JSON: /api/v1/satellites/48655 · /tle

For live sub-satellite position, see the globe view (requires WebGL).

§ Visibility from observer

Set your observer location to see the next 7 days of passes ≥ 10°. The values pass through the URL so the page stays shareable.

No JS? Fill the form by hand. The geolocation button needs JavaScript.